Starlink 6284

operational
NORAD ID: 56403 Int'l Des: 2023-061 Owner: SPXS Country: US Constellation: starlink
LEOCIRCULAR

Über Starlink 6284

Beschreibung wird geladen...

Live-Position

3D-Globus wird geladen...

Nächste Überflüge

Höhenverlauf

Altitude vs Time

uPlot chart will show altitude changes over time

Zweizeiliger Elementsatz

1 56403U 23061AF 26063.53026328 .08801110 93534-5 51907-3 0 9999
2 56403 42.9891 168.5981 0003324 285.4154 74.6372 16.41465209156630
Epoch: 4. März 2026 • Age: 19 hours

Aktueller Status

Höhe 151.2 km
Geschwindigkeit 7.82 km/s
Subsatellitenpunkt 32.93°N, 126.48°E
Startdatum 4. Mai 2023
Alter 2.8 years
Typ internet

Technische Details

Klassifizierung Payload
Masse 305.00 kg
Trockenmasse 290.00 kg
Gesamtmasse 305.00 kg
Länge 0.20 m
Durchmesser 2.80 m
Spannweite 9.00 m
Form Box + pan
Hersteller SPXS
Bus-Typ Starlink
Phasenstatus In Orbit
Besitzer/Staat SPXS/US

Große Konstellationen

Loading constellations...